Terminal Aerodrome Forecast
Issued by NWS

Home | Current Version | Previous Version | Graphics & Text | Print | Product List | Glossary On
Versions: 1 2 3 4 5 6 7 8 9 10 11 12 13 14 15 16
000
FTUS43 KIWX 152340
TAFSBN
TAF
KSBN 152340Z 1600/1624 32008KT 3/4SM -RA BR VV002
      TEMPO 1600/1603 2SM -RA BR SCT002 OVC010
     FM160300 33007KT 4SM BR OVC010
     FM160500 34011KT P6SM OVC025
     FM161800 32013KT P6SM BKN035
     FM162100 31010KT P6SM SCT040=

USA.gov is the U.S. government's official web portal to all federal, state and local government web resources and services.